Location: Briis
(48.6240°N, 2.1211°E)
Time: 11:16:02
(UTC+00:00)

Cosmos 1707 Rocket - Pass Details

Date: 25 September 2020
Orbit: 606 x 630 km, 82.5° (Epoch: 25 October)

Event Time Altitude Azimuth Distance (km) Brightness Sun altitude
Exits shadow 03:32:26 31° 174° (S) 1,076 4.6 -21.7°
Maximum altitude 03:34:26 71° 97° (E) 648 3.7 -21.4°
Drops below altitude 10° 03:38:49 10° 14° (NNE) 1,982 6.6 -20.8°
Sets 03:41:03 0° 12° (NNE) 2,896 7.5 -20.4°
